Location: Newark
(43.9494°N, 6.8108°E)
Time: 23:18:46
(UTC+00:00)

Transit 2A Rocket - Pass Details

Date: 25 October 2019
Orbit: 594 x 909 km, 66.7° (Epoch: 16 November)

Event Time Altitude Azimuth Distance (km) Brightness Sun altitude
Exits shadow 03:26:58 52° 29° (NNE) 846 5.3 -28.0°
Drops below altitude 10° 03:30:26 10° 31° (NNE) 2,060 7.7 -27.4°
Sets 03:32:39 0° 32° (NNE) 2,937 8.6 -27.0°
